Wetbulb
49.32 49.04 48.74 48.56 48.42 47.88 47.41 47.36 47.73 47.61 47.08 46.13 45.52 45.36 45.19 45.05 44.78 44.86 45.00 45.02 44.92 44.92 44.92 44.92 45.07 44.94 44.84 44.75 44.77 44.54 44.26 44.07 44.02 44.66 45.25 45.05 44.13 43.47 43.16 42.97 42.69 42.34 42.10 42.20 42.05 42.11 42.12 42.06 42.18 42.36 42.56 42.45 42.26 41.90 41.62 41.93 41.21 41.13 41.36 41.36 41.54 41.28 40.90 40.71 40.75 40.75 40.75 40.75 41.29
48.67 48.28 48.21 48.83 48.54 47.77 47.03 46.83 47.00 47.03 46.69 46.21 45.84 45.49 45.24 45.17 44.92 44.78 44.69 44.49 44.92 44.95 45.00 45.22 44.90 44.59 44.46 44.74 44.87 44.61 44.18 43.94 43.90 44.09 44.29 44.05 43.63 43.23 42.88 42.72 42.36 42.20 42.04 41.80 41.66 42.01 42.21 41.68 41.73 42.03 42.25 42.27 41.91 41.53 41.45 41.96 41.14 40.85 40.86 40.56 41.16 41.23 41.12 40.93 40.94 40.86 40.79 40.95 41.14
47.55 47.12 46.81 46.73 46.29 46.08 45.99 45.84 45.74 45.45 45.31 45.61 45.81 45.66 45.40 45.27 45.13 44.95 44.77 44.72 44.62 44.65 44.81 45.11 44.69 44.54 44.42 44.38 44.32 44.17 43.99 43.79 43.81 43.72 43.63 43.53 43.35 43.10 42.92 42.73 42.21 42.34 42.59 42.46 41.79 41.81 41.92 41.47 41.92 42.33 42.59 42.32 41.60 41.33 41.37 41.29 41.35 41.16 40.85 40.44 41.07 41.32 41.43 41.42 41.06 41.05 41.09 41.36 40.95
46.69 46.22 45.95 45.88 45.69 45.37 45.22 45.57 45.18 45.01 45.18 45.57 45.34 45.19 45.08 45.04 45.00 44.92 44.70 44.39 44.40 44.53 44.65 44.51 44.73 44.62 44.45 44.08 44.01 43.87 44.08 44.68 44.47 44.02 43.61 43.42 43.14 42.90 42.69 42.34 42.14 42.01 41.98 41.75 41.42 41.22 41.22 41.14 41.88 42.17 42.03 41.29 40.88 40.92 41.25 41.53 41.11 41.03 41.10 40.88 41.21 41.25 41.21 41.46 41.33 41.37 41.50 41.32 40.91
46.22 45.95 45.81 45.66 45.66 45.47 45.22 45.05 44.83 44.69 44.72 44.73 44.70 44.64 44.53 44.49 44.49 44.47 44.38 44.44 44.51 44.57 44.55 44.08 44.58 44.68 44.43 44.19 43.94 43.80 43.84 44.11 45.43 44.83 43.77 43.18 42.86 42.62 42.45 42.14 41.97 41.82 41.64 41.36 40.99 41.01 41.02 40.59 41.51 41.62 41.26 40.91 41.13 41.12 41.01 40.95 40.65 40.69 40.95 41.39 41.41 41.41 41.33 41.33 41.45 41.50 41.51 41.49 41.15
45.87 45.84 45.81 45.59 45.67 45.53 45.27 44.90 44.71 44.54 44.31 44.32 44.03 43.84 43.85 44.37 44.40 44.26 44.10 44.02 43.93 43.93 44.20 45.00 45.38 45.40 44.97 44.01 43.66 43.54 43.42 43.22 43.73 43.48 43.00 42.50 42.42 42.19 41.87 41.62 41.18 41.16 41.09 40.84 40.47 40.53 40.55 40.22 41.07 41.23 41.02 41.03 40.89 40.73 40.61 40.47 40.69 40.62 40.70 40.96 41.24 41.36 41.37 41.14 41.37 41.49 41.38 41.15 40.81
45.70 45.54 45.45 45.35 45.24 45.01 44.76 44.69 44.46 44.29 44.09 43.93 43.68 43.55 43.57 43.74 43.71 43.55 43.58 43.83 43.98 44.09 44.57 45.51 45.24 44.72 44.02 43.34 43.21 43.20 43.27 43.26 43.08 42.69 42.39 42.27 41.90 41.49 41.09 40.77 40.31 40.14 40.16 40.27 40.06 40.10 40.07 39.71 40.56 41.00 41.37 41.87 41.48 40.71 40.16 40.40 40.48 40.44 40.44 40.44 41.10 41.30 41.19 40.76 41.23 41.27 41.16 40.97 41.20
45.47 45.28 45.16 45.10 44.82 44.55 44.40 44.54 44.38 44.27 44.21 44.13 43.66 43.57 43.50 43.43 43.35 43.56 43.75 43.98 44.01 44.20 44.46 44.73 43.68 43.15 42.90 42.88 42.95 43.07 43.01 42.70 42.66 42.29 41.85 41.57 41.00 40.55 40.25 39.83 39.64 39.54 39.52 39.54 39.56 39.54 39.63 39.94 40.38 40.38 40.43 40.70 40.97 40.76 40.31 39.89 40.01 40.05 39.97 39.97 40.80 41.15 41.27 41.34 41.54 41.71 41.84 41.93 42.15
44.92 44.91 45.02 45.07 44.99 44.81 44.70 44.58 44.51 44.35 44.16 43.89 43.71 43.64 43.69 43.68 43.55 43.51 43.63 43.94 44.26 44.30 44.12 43.78 43.30 43.02 42.85 42.73 43.02 43.10 43.08 42.91 42.32 41.75 41.16 40.53 40.02 39.81 39.65 39.42 39.27 39.20 39.23 39.24 39.12 38.98 39.18 40.05 40.28 40.33 40.38 40.73 40.77 40.73 40.46 40.08 40.16 39.97 39.97 40.17 40.53 40.89 41.36 42.19 42.70 42.83 42.80 42.57 42.36
44.60 44.65 44.76 44.78 45.00 45.16 45.10 44.76 44.49 44.34 44.08 43.72 43.70 43.78 44.28 45.49 44.81 44.10 43.81 44.37 44.39 44.04 43.54 43.31 43.20 43.07 43.01 42.90 43.09 43.03 42.84 42.63 42.17 41.56 41.08 40.77 40.54 40.06 39.59 39.45 39.09 39.05 39.13 39.17 39.27 39.22 39.30 39.88 39.92 39.97 40.05 40.29 40.25 40.40 40.55 40.59 40.36 40.21 40.41 41.00 41.00 41.32 41.83 42.59 42.72 42.61 42.53 42.46 42.13
44.45 44.49 44.61 44.49 44.88 45.15 45.09 44.51 44.34 44.17 43.95 43.53 43.54 43.60 43.94 44.84 44.23 44.07 44.10 44.26 43.59 43.14 42.92 43.16 43.08 43.08 43.10 43.14 43.06 42.96 42.72 42.36 41.86 41.21 40.68 40.30 40.25 39.86 39.39 39.37 39.15 39.10 39.17 39.23 39.34 39.41 39.62 39.77 39.58 39.66 39.82 40.13 40.13 40.37 40.60 40.64 40.56 40.76 41.26 41.70 41.87 41.87 41.83 41.99 42.24 42.29 42.18 42.18 41.77
44.27 44.42 44.48 44.55 44.61 44.69 44.51 44.11 44.01 43.81 43.72 43.54 43.46 43.36 43.28 43.19 43.23 43.73 43.99 43.52 43.05 42.92 42.93 43.14 43.14 43.10 43.14 43.20 42.84 42.75 42.54 41.77 41.19 40.69 40.30 39.84 39.55 39.43 39.26 39.27 39.26 39.24 39.26 39.38 39.49 39.64 39.77 39.66 39.54 39.47 39.54 39.70 40.29 40.60 40.68 40.72 40.99 41.26 41.42 41.54 41.47 41.40 41.32 41.32 41.52 41.73 41.85 41.86 41.57
44.25 44.30 44.30 44.41 44.29 44.27 44.02 43.77 43.58 43.51 43.42 43.32 43.27 43.24 43.13 43.13 43.47 43.60 43.43 42.83 42.77 43.00 43.21 43.19 43.32 43.19 43.03 42.89 42.54 42.18 41.70 41.16 40.64 40.27 40.07 39.59 39.49 39.41 39.31 39.29 39.31 39.25 39.34 39.51 39.62 39.75 39.81 39.70 39.58 39.50 39.54 39.54 40.01 40.37 40.76 41.15 41.26 41.15 41.00 40.69 40.77 40.69 40.61 40.73 40.85 41.13 41.37 41.33 41.25
44.18 44.20 44.17 44.10 44.07 43.98 43.75 43.42 43.35 43.31 43.25 43.00 43.01 43.02 43.02 42.84 43.40 43.60 43.23 42.38 42.54 42.83 43.10 43.24 43.51 43.46 43.18 42.62 42.12 41.58 41.15 40.72 40.30 39.93 39.66 39.71 39.57 39.38 39.17 39.26 39.28 39.32 39.49 39.69 39.67 39.64 39.65 39.66 39.62 39.54 39.46 39.42 39.66 40.29 40.96 41.42 41.20 40.81 40.49 40.00 40.00 40.12 40.20 40.48 40.60 40.80 40.92 40.83 40.86
43.80 43.90 43.97 43.87 43.78 43.64 43.50 43.26 43.32 43.27 43.11 42.81 42.75 42.76 42.77 42.69 43.30 43.51 43.19 42.39 42.50 42.73 42.90 42.96 43.08 43.07 42.88 42.33 41.69 41.12 40.64 40.34 39.96 39.69 39.45 39.43 39.36 39.23 39.13 39.17 39.22 39.34 39.50 39.70 39.75 39.76 39.69 39.66 39.70 39.62 39.62 39.53 40.01 40.61 41.12 41.20 40.96 40.69 40.45 40.16 40.20 40.15 40.26 40.38 40.67 40.74 40.78 40.64 40.59
43.43 43.59 43.73 43.65 43.44 43.35 43.23 43.10 43.19 43.09 42.86 42.63 42.57 42.63 42.58 42.54 42.91 43.12 43.14 42.77 42.84 42.87 42.79 42.52 42.37 42.10 41.80 41.79 41.31 40.81 40.32 39.95 39.68 39.40 39.22 39.08 39.06 39.02 39.07 39.15 39.23 39.35 39.48 39.56 39.72 39.81 39.89 39.93 39.94 39.89 39.97 40.25 40.73 40.81 40.81 40.81 40.61 40.48 40.40 40.35 40.38 40.46 40.49 40.60 40.72 40.76 40.67 40.70 40.67
43.24 43.31 43.39 43.37 43.13 43.01 42.93 42.77 42.81 42.70 42.56 42.35 42.45 42.41 42.38 42.49 42.62 43.01 43.39 43.54 43.23 42.81 42.44 42.09 41.91 41.37 40.85 40.90 40.82 40.46 40.04 39.76 39.48 39.27 39.09 39.06 38.99 39.03 39.08 39.16 39.43 39.56 39.64 39.61 39.70 39.78 39.90 40.05 40.29 40.57 40.81 41.17 41.05 40.81 40.53 40.48 40.27 40.22 40.21 40.25 40.32 40.22 40.38 40.92 40.96 40.86 40.72 40.77 40.89
43.02 43.20 43.23 43.20 43.10 42.97 42.80 42.67 42.54 42.41 42.25 42.18 42.21 42.25 42.30 42.41 42.54 42.86 43.23 43.37 42.94 42.41 41.91 41.53 41.28 40.81 40.32 39.90 39.99 40.14 40.09 39.75 39.46 39.32 39.17 39.18 39.22 39.23 39.28 39.40 39.75 39.91 39.92 39.85 39.82 39.90 40.13 40.53 40.92 41.28 41.44 41.33 41.01 40.77 40.57 40.36 40.18 39.97 39.96 39.99 40.06 40.18 40.38 40.79 40.79 40.78 40.75 40.77 41.13
43.03 43.12 43.17 43.08 43.00 42.93 42.95 43.03 42.69 42.41 42.23 42.20 42.27 42.38 42.38 42.38 42.54 42.67 42.71 42.59 42.63 42.11 41.48 40.98 40.72 40.39 40.07 39.85 39.71 40.16 40.42 39.91 39.51 39.36 39.33 39.41 39.46 39.47 39.48 39.57 39.84 39.96 40.01 40.13 40.29 40.56 40.95 41.34 41.50 41.51 41.32 41.13 40.81 40.65 40.53 40.40 40.07 40.02 40.01 40.16 40.24 40.36 40.48 40.56 40.75 40.87 40.90 40.87 41.07
43.10 43.13 43.18 43.15 43.01 42.92 42.78 42.80 42.49 42.31 42.25 42.25 42.27 42.27 42.33 42.48 42.54 42.51 42.36 42.12 42.18 41.67 41.08 40.57 40.30 40.08 39.83 39.65 39.61 39.68 39.91 40.05 39.57 39.42 39.42 39.54 39.58 39.52 39.60 39.76 39.81 39.97 40.20 40.55 40.87 41.22 41.46 41.51 41.39 41.20 40.97 40.77 40.53 40.36 40.20 40.16 40.02 39.97 40.09 40.33 40.36 40.40 40.52 40.64 40.92 41.04 41.19 41.31 41.31
43.20 43.24 43.24 43.19 42.92 42.68 42.46 42.38 42.25 42.18 42.14 42.18 42.14 42.13 42.21 42.41 42.33 42.22 42.04 41.90 41.51 41.11 40.59 40.05 39.90 39.71 39.48 39.30 39.16 39.12 39.27 39.96 39.62 39.39 39.43 39.62 39.67 39.79 39.95 40.11 40.01 40.17 40.40 40.80 41.11 41.23 41.24 40.97 40.81 40.65 40.57 40.32 40.15 39.86 39.81 39.96 39.87 39.86 40.02 40.30 40.34 40.59 40.79 41.04 41.16 41.31 41.47 41.64 41.80
43.23 43.23 43.20 43.06 42.72 42.59 42.44 42.31 42.23 42.12 42.08 42.04 42.08 42.07 42.13 42.21 42.12 42.00 41.71 41.43 40.91 40.41 39.90 39.57 39.38 39.21 39.06 38.88 38.80 38.83 39.02 39.52 39.33 39.32 39.47 39.63 39.75 40.07 40.31 40.32 40.09 39.97 40.17 40.57 40.45 40.33 40.24 40.12 40.20 40.28 40.19 40.10 39.88 39.78 39.93 40.22 40.20 40.27 40.26 40.38 40.55 40.81 41.11 41.40 41.52 41.72 41.89 42.10 42.26
43.44 43.35 43.17 42.84 42.68 42.85 42.93 42.48 42.13 41.98 41.94 41.94 41.93 41.97 42.04 41.95 41.94 41.71 41.35 40.94 40.76 40.27 39.66 39.41 39.26 39.03 38.91 38.87 38.79 38.78 38.71 38.76 38.84 39.10 39.41 39.60 39.69 39.85 40.05 40.09 39.77 39.48 39.43 39.71 39.91 40.03 40.06 40.02 40.22 40.26 40.34 40.37 40.18 40.25 40.44 40.70 40.81 40.79 40.78 40.80 40.93 41.11 41.38 41.72 41.93 42.17 42.38 42.58 42.79
43.54 43.37 43.23 42.91 42.55 42.32 42.23 42.02 41.83 41.73 41.69 41.69 41.73 41.76 41.79 41.74 41.57 41.30 40.96 40.59 40.35 39.98 39.76 39.78 39.50 39.17 38.88 39.10 38.95 38.81 38.60 38.39 38.54 38.81 39.12 39.47 39.54 39.58 39.53 39.64 39.34 39.25 39.44 40.10 40.92 41.36 41.40 41.14 40.86 40.89 41.07 41.25 41.34 41.44 41.48 41.61 41.59 41.66 41.70 41.70 41.83 41.92 42.06 42.34 42.69 42.90 43.11 43.27 43.44
43.39 43.20 43.03 42.64 42.30 42.02 41.90 41.73 41.59 41.44 41.44 41.56 41.55 41.55 41.46 41.33 41.14 40.86 40.52 40.18 39.90 39.72 39.45 39.33 39.23 39.10 38.97 39.03 39.00 38.90 38.72 38.50 38.53 38.64 38.71 38.98 39.16 39.15 39.17 39.29 39.50 39.79 40.36 41.09 43.17 44.26 44.43 43.93 43.14 42.58 42.32 42.56 42.67 42.79 42.83 42.88 42.88 42.87 42.82 42.82 42.82 42.87 42.96 43.19 43.51 43.73 43.99 44.17 44.30
43.17 42.88 42.48 42.16 41.92 41.79 41.62 41.44 41.42 41.31 41.31 41.39 41.30 41.18 40.98 40.82 40.69 40.42 40.00 39.70 39.50 39.31 39.20 38.98 38.85 39.42 39.79 39.28 39.06 38.96 38.92 38.84 38.79 38.66 38.60 38.66 38.64 38.63 38.91 39.53 40.07 40.16 40.64 42.14 44.05 44.97 45.53 45.74 45.53 44.87 44.17 43.59 43.58 43.62 43.62 43.70 43.84 43.89 43.84 43.79 43.74 43.69 43.60 43.65 43.88 44.20 44.56 44.92 45.10
42.74 42.33 41.95 41.89 41.64 41.51 41.38 41.35 41.24 41.21 41.09 41.13 40.89 40.66 40.49 40.36 40.30 39.93 39.48 39.26 39.06 38.95 38.85 38.75 38.70 39.66 40.33 39.35 38.85 38.76 38.80 38.94 38.80 38.62 38.52 38.42 38.37 38.69 39.19 39.86 39.98 40.06 40.88 43.01 44.60 45.45 45.92 46.39 46.60 46.49 45.91 44.71 44.39 44.24 44.05 44.14 44.28 44.42 44.46 44.50 44.41 44.36 44.23 44.14 44.32 44.60 44.92 45.23 45.59
42.23 41.85 41.64 41.50 41.33 41.19 41.24 41.25 41.10 41.06 40.94 40.82 40.59 40.39 40.23 39.99 39.61 39.31 39.01 38.90 38.75 38.58 38.52 38.49 38.88 39.27 39.39 38.83 38.63 38.63 38.70 38.69 38.62 38.52 38.42 38.33 39.11 39.36 39.48 39.48 39.38 40.19 41.72 44.10 45.07 45.71 46.13 46.73 47.21 47.38 47.19 46.31 45.24 44.78 44.64 44.50 44.59 44.68 44.72 44.68 44.77 44.77 44.68 44.68 44.91 44.95 45.13 45.36 45.81
41.85 41.50 41.33 41.12 41.06 40.99 41.03 41.04 40.96 40.88 40.76 40.48 40.29 40.08 39.85 39.55 39.14 38.80 38.58 38.44 38.26 38.08 38.08 38.38 39.08 39.03 38.74 38.45 38.41 38.48 38.43 38.38 38.40 38.42 38.61 39.15 39.31 39.23 39.23 39.39 39.46 40.64 42.59 44.82 45.37 45.84 46.40 46.91 47.47 47.90 48.04 47.71 46.27 45.41 45.04 44.81 44.76 44.81 44.90 45.04 45.08 45.26 45.31 45.26 45.13 45.08 45.22 45.45 45.63
41.64 41.33 41.09 40.88 40.82 40.82 40.86 40.82 40.74 40.62 40.49 40.36 40.02 39.64 39.30 38.93 38.59 38.34 38.15 38.01 37.82 38.04 38.41 38.80 38.79 38.58 38.33 38.21 38.23 38.26 38.24 38.14 38.43 38.80 39.08 39.00 38.74 38.86 39.22 39.79 39.65 40.67 42.46 44.78 45.42 46.01 46.53 47.12 47.73 48.12 48.38 48.38 47.27 46.22 45.44 45.08 44.99 45.08 45.13 45.17 45.40 45.40 45.31 45.35 45.40 45.41 45.37 45.20 45.11
41.41 41.17 41.00 40.82 40.79 40.75 40.71 40.67 40.55 40.32 40.12 40.03 39.51 39.09 38.68 38.31 38.04 37.86 37.77 37.72 37.94 38.68 39.34 39.05 38.36 37.99 37.91 38.13 38.03 37.89 37.88 38.22 38.77 39.05 38.96 38.54 39.10 39.25 39.20 39.19 39.27 40.46 42.46 44.87 45.63 46.32 46.91 47.47 47.90 48.29 48.51 48.63 47.84 46.75 45.76 45.31 45.31 45.35 45.49 45.44 45.49 45.63 45.63 45.58 45.19 44.88 44.58 44.45 44.71
41.14 41.12 41.01 40.91 40.76 40.61 40.57 40.37 40.21 39.90 39.60 39.18 38.88 38.50 38.20 37.78 37.69 37.67 37.81 38.04 38.34 38.49 38.52 38.18 37.78 37.61 37.55 37.65 37.51 37.66 37.96 38.56 38.71 38.82 38.85 39.04 38.86 38.73 38.67 39.16 39.17 40.41 42.50 45.08 46.06 46.70 47.35 47.78 48.16 48.42 48.68 48.94 48.19 47.02 46.03 45.62 45.67 45.71 45.85 45.85 45.80 45.58 45.27 44.88 44.39 44.18 44.05 44.40 44.79
41.27 41.20 41.02 40.77 40.42 40.23 40.11 39.88 39.68 39.34 39.07 38.69 38.35 38.12 37.85 37.57 37.54 37.68 37.99 38.30 38.36 38.06 37.60 37.39 37.26 37.12 37.06 37.08 37.24 37.54 38.13 38.64 38.66 39.09 39.49 39.53 39.14 38.79 38.81 39.26 39.30 41.02 43.47 45.64 46.50 47.19 47.75 48.09 48.33 48.59 48.90 49.14 48.07 47.02 46.17 45.85 45.94 45.94 45.85 45.58 45.45 45.05 44.61 44.05 43.87 43.87 44.09 44.49 44.89
41.33 41.07 40.77 40.35 40.08 39.81 39.66 39.38 39.15 38.88 38.58 38.15 37.92 37.80 37.60 37.33 37.35 37.46 37.86 38.53 38.55 38.18 37.64 37.38 37.23 37.09 37.04 37.20 37.59 37.81 38.18 38.95 38.77 38.67 38.70 38.86 38.79 39.00 39.24 39.59 39.83 41.94 44.49 46.25 46.94 47.54 47.88 48.12 48.36 48.62 48.96 49.18 47.77 46.71 46.03 45.90 45.85 45.71 45.49 45.04 44.74 44.44 44.05 43.84 43.75 43.84 43.93 44.19 44.54
40.93 40.59 40.13 39.82 39.58 39.39 39.15 38.92 38.73 38.38 38.11 37.68 37.52 37.38 37.31 37.15 37.15 37.31 37.87 39.08 39.23 38.45 37.58 37.32 37.26 37.21 37.25 37.38 37.97 38.18 38.37 38.57 38.31 38.34 38.54 38.77 38.94 39.15 39.33 39.67 40.27 42.56 45.22 46.65 47.21 47.54 47.81 48.00 48.21 48.58 48.79 48.55 47.24 46.26 45.72 45.54 45.40 45.18 44.91 44.51 44.09 43.71 43.46 43.33 43.34 43.51 43.64 43.94 44.42
40.48 40.01 39.62 39.27 39.08 38.88 38.73 38.53 38.30 37.95 37.63 37.23 37.01 36.93 36.92 37.00 37.09 37.35 38.08 39.48 38.93 37.85 37.00 36.94 36.99 37.07 37.20 37.42 37.89 38.37 38.52 38.26 38.07 38.10 38.43 39.00 39.13 39.17 39.31 39.71 40.52 42.71 45.22 46.78 47.20 47.43 47.62 47.85 48.12 48.44 48.45 47.81 46.39 45.72 45.40 45.22 45.04 44.73 44.30 43.79 43.33 43.00 42.84 42.83 43.04 43.47 44.03 44.54 44.80
40.09 39.70 39.27 38.88 38.68 38.53 38.37 38.21 37.89 37.45 37.13 36.80 36.61 36.49 36.58 36.63 36.81 37.27 37.96 38.94 37.54 36.70 36.43 36.57 36.84 37.06 37.36 37.61 37.85 38.12 38.35 38.38 38.43 38.50 38.74 39.32 39.57 39.66 39.87 40.49 40.94 42.55 44.61 46.47 47.01 47.24 47.47 47.64 48.00 48.33 48.00 46.75 45.59 45.09 44.86 44.68 44.51 44.04 43.58 43.03 42.75 42.67 42.79 43.02 43.49 44.14 44.71 45.01 45.19
39.78 39.43 39.08 38.64 38.41 38.25 38.05 37.85 37.44 37.03 36.63 36.46 36.38 36.42 36.51 36.59 36.63 37.07 37.81 38.79 36.86 36.10 36.19 36.60 37.03 37.24 37.44 37.76 38.05 38.19 38.17 38.38 38.85 38.94 39.03 39.25 39.75 40.25 40.85 41.42 41.60 42.42 43.92 45.85 46.61 47.01 47.26 47.61 48.06 48.31 47.84 46.04 44.82 44.29 44.07 43.95 43.51 43.23 42.98 42.73 42.69 42.76 43.00 43.56 44.21 44.60 44.82 44.74 45.69
39.58 39.31 39.03 38.60 38.28 38.04 37.80 37.52 37.11 36.75 36.42 36.26 36.21 36.30 36.40 36.52 36.67 37.26 37.91 38.28 36.73 36.20 36.41 36.88 37.11 37.53 37.95 38.56 38.53 38.35 38.22 38.45 39.01 39.49 39.75 39.68 40.54 41.71 42.56 42.29 41.75 42.15 43.38 45.33 46.21 46.76 47.11 47.59 48.05 48.32 47.92 46.26 44.57 43.87 43.61 43.31 42.94 42.85 42.85 42.90 42.89 43.05 43.36 44.02 44.46 44.42 44.16 43.87 45.65
39.47 39.27 38.92 38.56 38.24 37.96 37.64 37.27 36.92 36.70 36.43 36.20 36.09 36.10 36.27 36.59 37.22 37.73 38.00 37.60 36.77 36.67 36.98 37.28 37.41 37.83 38.42 39.38 38.93 38.46 38.26 38.44 38.91 39.60 40.41 40.95 41.91 43.29 44.01 42.55 41.49 41.63 42.79 44.82 45.88 46.51 46.94 47.43 47.89 48.11 47.64 45.74 44.29 43.76 43.61 43.28 42.99 42.80 42.75 42.97 43.01 43.11 43.29 43.79 43.75 43.41 42.82 42.40 43.79
39.35 39.19 38.99 38.67 38.32 37.96 37.47 37.07 36.79 36.56 36.41 36.15 36.01 36.38 37.07 37.66 37.48 37.18 36.88 36.65 36.73 37.09 37.44 37.53 37.70 37.94 38.44 39.33 38.94 38.65 38.48 38.76 39.29 40.02 40.97 41.86 42.28 43.17 43.34 41.95 41.12 41.11 42.01 43.72 45.20 46.13 46.68 47.22 47.58 47.80 47.23 45.69 44.51 44.04 43.75 43.19 42.73 42.37 42.33 42.43 42.61 42.66 42.57 42.68 42.45 42.13 41.80 41.51 41.74
MSLP
1017.21 1017.33 1017.45 1017.57 1017.77 1017.93 1018.05 1018.17 1018.21 1018.29 1018.45 1018.53 1018.65 1018.69 1018.73 1018.77 1018.85 1018.85 1018.85 1018.85 1018.85 1018.81 1018.73 1018.73 1018.65 1018.57 1018.49 1018.45 1018.41 1018.37 1018.33 1018.29 1018.29 1018.21 1018.17 1018.17 1018.13 1018.09 1018.01 1017.93 1017.85 1017.81 1017.73 1017.69 1017.61 1017.57 1017.49 1017.45 1017.37 1017.33 1017.29 1017.21 1017.13 1017.09 1017.01 1017.01 1016.97 1016.89 1016.85 1016.85 1016.77 1016.73 1016.69 1016.65 1016.57 1016.53 1016.49 1016.45 1016.37
1017.13 1017.25 1017.37 1017.57 1017.73 1017.85 1018.01 1018.17 1018.21 1018.29 1018.33 1018.41 1018.49 1018.57 1018.61 1018.65 1018.73 1018.77 1018.77 1018.73 1018.73 1018.65 1018.61 1018.57 1018.49 1018.45 1018.45 1018.33 1018.29 1018.25 1018.25 1018.17 1018.17 1018.13 1018.09 1018.01 1018.01 1017.97 1017.89 1017.81 1017.73 1017.69 1017.61 1017.57 1017.49 1017.45 1017.41 1017.29 1017.29 1017.21 1017.13 1017.05 1017.01 1016.97 1016.85 1016.81 1016.81 1016.77 1016.73 1016.69 1016.61 1016.57 1016.49 1016.45 1016.41 1016.33 1016.29 1016.21 1016.17
1017.21 1017.29 1017.45 1017.57 1017.77 1017.93 1018.05 1018.17 1018.25 1018.29 1018.33 1018.37 1018.37 1018.45 1018.49 1018.57 1018.61 1018.65 1018.65 1018.61 1018.57 1018.57 1018.53 1018.45 1018.41 1018.33 1018.29 1018.21 1018.17 1018.13 1018.09 1018.05 1018.01 1018.01 1018.01 1017.93 1017.85 1017.81 1017.77 1017.69 1017.61 1017.57 1017.49 1017.45 1017.37 1017.29 1017.25 1017.17 1017.13 1017.05 1017.01 1016.89 1016.85 1016.81 1016.73 1016.65 1016.65 1016.61 1016.57 1016.49 1016.45 1016.41 1016.33 1016.25 1016.17 1016.13 1016.09 1016.01 1015.97
1017.29 1017.45 1017.57 1017.73 1017.85 1017.93 1018.01 1018.09 1018.17 1018.21 1018.25 1018.25 1018.29 1018.33 1018.41 1018.45 1018.49 1018.49 1018.49 1018.49 1018.45 1018.45 1018.41 1018.33 1018.29 1018.21 1018.17 1018.09 1018.05 1018.01 1018.01 1017.93 1017.89 1017.89 1017.85 1017.81 1017.73 1017.69 1017.61 1017.57 1017.49 1017.45 1017.33 1017.29 1017.25 1017.17 1017.13 1017.05 1017.01 1016.89 1016.85 1016.77 1016.73 1016.65 1016.57 1016.49 1016.45 1016.45 1016.33 1016.29 1016.25 1016.17 1016.17 1016.05 1016.01 1015.93 1015.89 1015.81 1015.77
1017.45 1017.53 1017.61 1017.73 1017.81 1017.85 1017.93 1018.01 1018.05 1018.13 1018.17 1018.17 1018.25 1018.29 1018.33 1018.37 1018.41 1018.41 1018.41 1018.41 1018.37 1018.29 1018.25 1018.17 1018.13 1018.01 1018.01 1017.97 1017.93 1017.89 1017.85 1017.85 1017.77 1017.73 1017.73 1017.69 1017.61 1017.53 1017.45 1017.41 1017.37 1017.29 1017.17 1017.13 1017.05 1017.01 1016.93 1016.89 1016.85 1016.73 1016.69 1016.61 1016.57 1016.45 1016.41 1016.37 1016.29 1016.21 1016.17 1016.09 1016.01 1016.01 1015.93 1015.85 1015.81 1015.77 1015.73 1015.65 1015.57
1017.57 1017.61 1017.65 1017.73 1017.77 1017.85 1017.85 1017.93 1018.01 1018.05 1018.09 1018.13 1018.21 1018.29 1018.33 1018.33 1018.29 1018.29 1018.33 1018.29 1018.25 1018.17 1018.13 1018.05 1017.97 1017.93 1017.89 1017.89 1017.85 1017.81 1017.77 1017.73 1017.73 1017.65 1017.57 1017.57 1017.45 1017.37 1017.29 1017.29 1017.21 1017.13 1017.01 1017.01 1016.93 1016.85 1016.81 1016.77 1016.69 1016.57 1016.53 1016.45 1016.37 1016.29 1016.21 1016.21 1016.17 1016.09 1016.01 1015.93 1015.85 1015.81 1015.77 1015.73 1015.65 1015.61 1015.57 1015.49 1015.45
1017.73 1017.73 1017.77 1017.77 1017.81 1017.85 1017.89 1017.93 1017.97 1018.01 1018.05 1018.17 1018.25 1018.29 1018.33 1018.29 1018.29 1018.29 1018.25 1018.21 1018.17 1018.09 1018.01 1017.97 1017.89 1017.85 1017.85 1017.85 1017.77 1017.73 1017.73 1017.65 1017.57 1017.53 1017.45 1017.41 1017.29 1017.21 1017.13 1017.13 1017.01 1016.97 1016.89 1016.85 1016.77 1016.73 1016.65 1016.65 1016.57 1016.45 1016.37 1016.29 1016.21 1016.13 1016.05 1016.09 1016.01 1015.97 1015.89 1015.81 1015.69 1015.65 1015.61 1015.57 1015.49 1015.45 1015.45 1015.37 1015.29
1017.77 1017.81 1017.85 1017.85 1017.89 1017.93 1017.97 1017.97 1018.01 1018.01 1018.09 1018.17 1018.21 1018.25 1018.25 1018.25 1018.25 1018.21 1018.17 1018.13 1018.05 1018.01 1017.93 1017.85 1017.85 1017.85 1017.77 1017.77 1017.73 1017.65 1017.57 1017.53 1017.45 1017.37 1017.29 1017.25 1017.17 1017.09 1017.01 1016.97 1016.89 1016.85 1016.77 1016.73 1016.69 1016.61 1016.57 1016.49 1016.45 1016.33 1016.25 1016.17 1016.09 1016.01 1015.93 1015.93 1015.89 1015.85 1015.77 1015.69 1015.57 1015.49 1015.45 1015.41 1015.33 1015.29 1015.21 1015.13 1015.05
1017.89 1017.89 1017.85 1017.89 1017.89 1017.93 1017.97 1017.97 1017.97 1018.01 1018.09 1018.17 1018.17 1018.17 1018.17 1018.17 1018.17 1018.13 1018.09 1018.01 1017.97 1017.89 1017.85 1017.81 1017.73 1017.73 1017.69 1017.65 1017.61 1017.53 1017.45 1017.37 1017.29 1017.21 1017.13 1017.09 1017.05 1016.97 1016.89 1016.85 1016.77 1016.73 1016.61 1016.57 1016.57 1016.49 1016.45 1016.37 1016.29 1016.21 1016.17 1016.05 1015.97 1015.89 1015.85 1015.81 1015.77 1015.73 1015.61 1015.57 1015.45 1015.37 1015.29 1015.25 1015.13 1015.09 1015.01 1014.97 1014.89
1018.01 1017.97 1017.97 1017.93 1017.93 1017.89 1017.89 1017.93 1017.93 1018.01 1018.05 1018.09 1018.09 1018.13 1018.09 1018.05 1018.05 1018.01 1017.97 1017.89 1017.85 1017.81 1017.77 1017.73 1017.65 1017.61 1017.57 1017.57 1017.45 1017.41 1017.29 1017.21 1017.13 1017.09 1017.01 1016.97 1016.89 1016.85 1016.73 1016.69 1016.65 1016.57 1016.49 1016.45 1016.45 1016.37 1016.29 1016.25 1016.17 1016.09 1016.01 1015.93 1015.85 1015.77 1015.69 1015.65 1015.61 1015.57 1015.45 1015.41 1015.29 1015.21 1015.13 1015.05 1015.01 1014.97 1014.85 1014.81 1014.77
1018.01 1017.97 1017.97 1017.93 1017.93 1017.85 1017.85 1017.93 1017.93 1017.93 1018.01 1018.01 1018.01 1018.01 1018.01 1018.01 1017.97 1017.89 1017.85 1017.77 1017.77 1017.73 1017.73 1017.65 1017.61 1017.57 1017.49 1017.45 1017.37 1017.29 1017.17 1017.09 1017.05 1016.97 1016.85 1016.85 1016.77 1016.69 1016.61 1016.57 1016.53 1016.45 1016.37 1016.29 1016.29 1016.25 1016.17 1016.13 1016.01 1015.93 1015.85 1015.77 1015.73 1015.65 1015.57 1015.53 1015.45 1015.37 1015.25 1015.17 1015.09 1015.01 1014.93 1014.89 1014.85 1014.85 1014.81 1014.73 1014.69
1018.01 1017.97 1017.89 1017.85 1017.85 1017.85 1017.85 1017.85 1017.85 1017.89 1017.93 1017.97 1017.93 1017.93 1017.93 1017.89 1017.85 1017.85 1017.77 1017.73 1017.73 1017.69 1017.57 1017.53 1017.49 1017.45 1017.41 1017.33 1017.25 1017.13 1017.05 1017.01 1016.93 1016.85 1016.77 1016.73 1016.65 1016.57 1016.49 1016.45 1016.41 1016.29 1016.25 1016.17 1016.13 1016.09 1016.01 1015.97 1015.85 1015.77 1015.69 1015.57 1015.57 1015.45 1015.41 1015.33 1015.29 1015.17 1015.09 1015.01 1015.01 1014.93 1014.85 1014.81 1014.81 1014.81 1014.77 1014.73 1014.61
1017.97 1017.93 1017.89 1017.85 1017.81 1017.77 1017.81 1017.81 1017.81 1017.85 1017.85 1017.85 1017.85 1017.85 1017.81 1017.77 1017.73 1017.73 1017.73 1017.69 1017.65 1017.61 1017.53 1017.45 1017.41 1017.37 1017.29 1017.21 1017.09 1017.01 1016.97 1016.89 1016.85 1016.73 1016.69 1016.61 1016.53 1016.45 1016.41 1016.29 1016.25 1016.17 1016.13 1016.01 1015.97 1015.89 1015.85 1015.77 1015.69 1015.57 1015.53 1015.45 1015.37 1015.29 1015.29 1015.21 1015.13 1015.05 1015.01 1014.93 1014.93 1014.85 1014.85 1014.77 1014.77 1014.77 1014.73 1014.65 1014.53
1017.97 1017.93 1017.85 1017.81 1017.77 1017.73 1017.73 1017.73 1017.73 1017.73 1017.73 1017.73 1017.73 1017.73 1017.69 1017.69 1017.65 1017.61 1017.61 1017.57 1017.57 1017.53 1017.45 1017.37 1017.29 1017.25 1017.13 1017.05 1017.01 1016.93 1016.85 1016.81 1016.73 1016.65 1016.57 1016.49 1016.45 1016.33 1016.25 1016.17 1016.09 1016.01 1015.93 1015.85 1015.77 1015.73 1015.69 1015.57 1015.53 1015.45 1015.37 1015.29 1015.21 1015.17 1015.13 1015.05 1015.01 1015.01 1014.93 1014.89 1014.85 1014.81 1014.77 1014.73 1014.73 1014.69 1014.61 1014.57 1014.45
1017.93 1017.85 1017.81 1017.77 1017.73 1017.73 1017.69 1017.65 1017.61 1017.57 1017.61 1017.61 1017.57 1017.57 1017.57 1017.57 1017.57 1017.57 1017.53 1017.53 1017.45 1017.41 1017.37 1017.29 1017.21 1017.09 1017.01 1016.97 1016.85 1016.85 1016.77 1016.73 1016.61 1016.57 1016.49 1016.37 1016.29 1016.21 1016.13 1016.01 1015.93 1015.85 1015.77 1015.69 1015.57 1015.57 1015.49 1015.45 1015.37 1015.29 1015.21 1015.13 1015.05 1015.01 1014.97 1014.93 1014.93 1014.89 1014.85 1014.85 1014.77 1014.73 1014.69 1014.61 1014.61 1014.57 1014.53 1014.45 1014.37
1017.89 1017.85 1017.77 1017.73 1017.65 1017.61 1017.57 1017.57 1017.53 1017.49 1017.49 1017.49 1017.49 1017.45 1017.49 1017.53 1017.49 1017.49 1017.45 1017.41 1017.37 1017.29 1017.25 1017.17 1017.09 1017.01 1016.89 1016.85 1016.77 1016.73 1016.69 1016.61 1016.53 1016.45 1016.37 1016.25 1016.17 1016.05 1016.01 1015.89 1015.81 1015.73 1015.61 1015.53 1015.45 1015.37 1015.33 1015.29 1015.17 1015.13 1015.05 1015.01 1014.89 1014.85 1014.85 1014.81 1014.81 1014.81 1014.73 1014.73 1014.65 1014.57 1014.53 1014.49 1014.45 1014.41 1014.33 1014.29 1014.17
1017.89 1017.85 1017.73 1017.69 1017.61 1017.57 1017.49 1017.45 1017.45 1017.45 1017.45 1017.45 1017.41 1017.41 1017.45 1017.45 1017.45 1017.45 1017.41 1017.29 1017.29 1017.21 1017.13 1017.01 1016.97 1016.85 1016.77 1016.73 1016.73 1016.65 1016.57 1016.49 1016.41 1016.33 1016.25 1016.13 1016.01 1015.89 1015.81 1015.73 1015.61 1015.53 1015.45 1015.37 1015.29 1015.21 1015.13 1015.09 1015.01 1014.97 1014.85 1014.81 1014.73 1014.73 1014.73 1014.69 1014.69 1014.61 1014.57 1014.57 1014.53 1014.45 1014.41 1014.29 1014.21 1014.17 1014.09 1014.01 1013.89
1017.85 1017.77 1017.69 1017.61 1017.57 1017.49 1017.45 1017.41 1017.37 1017.37 1017.37 1017.37 1017.37 1017.37 1017.37 1017.37 1017.37 1017.33 1017.29 1017.21 1017.13 1017.09 1017.01 1016.89 1016.85 1016.81 1016.73 1016.65 1016.57 1016.57 1016.45 1016.37 1016.25 1016.17 1016.09 1015.97 1015.85 1015.73 1015.65 1015.57 1015.45 1015.37 1015.29 1015.21 1015.13 1015.05 1014.97 1014.85 1014.81 1014.73 1014.65 1014.61 1014.57 1014.57 1014.57 1014.57 1014.53 1014.45 1014.45 1014.37 1014.33 1014.29 1014.17 1014.05 1014.01 1013.89 1013.81 1013.73 1013.57
1017.85 1017.73 1017.65 1017.57 1017.49 1017.45 1017.37 1017.33 1017.33 1017.33 1017.33 1017.33 1017.33 1017.33 1017.33 1017.33 1017.29 1017.25 1017.17 1017.13 1017.01 1016.97 1016.89 1016.85 1016.77 1016.73 1016.65 1016.57 1016.49 1016.41 1016.29 1016.21 1016.13 1016.01 1015.89 1015.81 1015.69 1015.57 1015.49 1015.37 1015.29 1015.17 1015.13 1015.05 1014.93 1014.85 1014.73 1014.65 1014.57 1014.57 1014.53 1014.49 1014.49 1014.45 1014.45 1014.41 1014.33 1014.29 1014.21 1014.13 1014.05 1013.97 1013.85 1013.73 1013.69 1013.57 1013.49 1013.37 1013.25
1017.81 1017.73 1017.61 1017.53 1017.45 1017.37 1017.33 1017.29 1017.29 1017.29 1017.29 1017.29 1017.29 1017.29 1017.29 1017.29 1017.21 1017.13 1017.09 1017.01 1016.93 1016.85 1016.85 1016.77 1016.73 1016.57 1016.53 1016.45 1016.33 1016.21 1016.13 1016.05 1015.97 1015.85 1015.73 1015.61 1015.53 1015.41 1015.29 1015.21 1015.09 1015.01 1014.89 1014.81 1014.73 1014.65 1014.57 1014.53 1014.49 1014.45 1014.45 1014.45 1014.37 1014.33 1014.29 1014.25 1014.17 1014.05 1013.93 1013.85 1013.73 1013.65 1013.53 1013.45 1013.29 1013.21 1013.09 1013.01 1012.85
1017.73 1017.65 1017.57 1017.45 1017.37 1017.29 1017.29 1017.25 1017.25 1017.29 1017.29 1017.29 1017.29 1017.29 1017.25 1017.21 1017.13 1017.05 1017.01 1016.93 1016.85 1016.85 1016.77 1016.73 1016.61 1016.49 1016.41 1016.29 1016.17 1016.09 1015.97 1015.89 1015.81 1015.69 1015.57 1015.45 1015.37 1015.25 1015.13 1015.01 1014.93 1014.85 1014.73 1014.69 1014.61 1014.57 1014.53 1014.49 1014.45 1014.41 1014.37 1014.37 1014.29 1014.21 1014.17 1014.05 1013.93 1013.77 1013.69 1013.57 1013.45 1013.33 1013.21 1013.13 1012.97 1012.85 1012.73 1012.57 1012.45
1017.69 1017.57 1017.45 1017.33 1017.29 1017.29 1017.25 1017.21 1017.21 1017.25 1017.25 1017.25 1017.25 1017.21 1017.13 1017.13 1017.05 1017.01 1016.93 1016.85 1016.81 1016.73 1016.69 1016.61 1016.49 1016.41 1016.29 1016.17 1016.09 1015.97 1015.85 1015.73 1015.65 1015.57 1015.45 1015.29 1015.21 1015.09 1015.01 1014.93 1014.85 1014.77 1014.69 1014.65 1014.57 1014.53 1014.49 1014.45 1014.41 1014.37 1014.29 1014.25 1014.13 1014.01 1013.89 1013.77 1013.61 1013.45 1013.33 1013.25 1013.09 1012.97 1012.85 1012.73 1012.57 1012.45 1012.29 1012.17 1012.09
1017.57 1017.45 1017.37 1017.29 1017.25 1017.21 1017.17 1017.17 1017.21 1017.21 1017.21 1017.21 1017.21 1017.13 1017.09 1017.05 1017.01 1016.93 1016.85 1016.81 1016.73 1016.65 1016.57 1016.49 1016.37 1016.29 1016.17 1016.05 1015.93 1015.81 1015.69 1015.57 1015.49 1015.41 1015.29 1015.21 1015.09 1014.97 1014.89 1014.85 1014.81 1014.73 1014.69 1014.61 1014.57 1014.53 1014.45 1014.37 1014.29 1014.17 1014.13 1013.97 1013.85 1013.73 1013.57 1013.45 1013.29 1013.13 1013.01 1012.85 1012.73 1012.57 1012.45 1012.29 1012.17 1012.01 1011.89 1011.77 1011.69
1017.49 1017.41 1017.29 1017.25 1017.21 1017.21 1017.17 1017.17 1017.21 1017.21 1017.21 1017.17 1017.13 1017.13 1017.05 1017.01 1016.93 1016.85 1016.77 1016.73 1016.65 1016.57 1016.45 1016.37 1016.25 1016.17 1016.05 1015.93 1015.81 1015.73 1015.57 1015.49 1015.41 1015.29 1015.13 1015.09 1015.01 1014.89 1014.85 1014.81 1014.77 1014.69 1014.61 1014.57 1014.49 1014.45 1014.33 1014.17 1014.01 1013.89 1013.81 1013.69 1013.57 1013.45 1013.29 1013.13 1013.01 1012.85 1012.65 1012.45 1012.29 1012.13 1011.97 1011.85 1011.73 1011.61 1011.49 1011.41 1011.29
1017.45 1017.37 1017.29 1017.25 1017.21 1017.17 1017.17 1017.21 1017.21 1017.21 1017.17 1017.13 1017.09 1017.05 1017.01 1016.97 1016.89 1016.85 1016.73 1016.65 1016.57 1016.45 1016.37 1016.25 1016.13 1016.01 1015.93 1015.81 1015.73 1015.61 1015.53 1015.45 1015.33 1015.21 1015.13 1015.01 1014.93 1014.85 1014.81 1014.73 1014.69 1014.61 1014.57 1014.45 1014.37 1014.21 1014.05 1013.89 1013.73 1013.61 1013.45 1013.37 1013.21 1013.09 1012.89 1012.73 1012.57 1012.45 1012.25 1012.05 1011.89 1011.73 1011.57 1011.41 1011.29 1011.17 1011.05 1010.97 1010.81
1017.45 1017.33 1017.29 1017.25 1017.21 1017.21 1017.21 1017.21 1017.21 1017.21 1017.17 1017.13 1017.05 1017.01 1017.01 1016.89 1016.85 1016.77 1016.69 1016.57 1016.45 1016.37 1016.29 1016.17 1016.05 1015.97 1015.85 1015.73 1015.65 1015.57 1015.45 1015.41 1015.29 1015.21 1015.09 1014.97 1014.89 1014.85 1014.73 1014.69 1014.61 1014.57 1014.45 1014.33 1014.17 1013.97 1013.77 1013.57 1013.45 1013.29 1013.13 1013.01 1012.81 1012.65 1012.45 1012.29 1012.13 1011.97 1011.81 1011.65 1011.49 1011.37 1011.17 1011.01 1010.85 1010.69 1010.57 1010.45 1010.29
1017.41 1017.33 1017.29 1017.25 1017.21 1017.21 1017.21 1017.21 1017.17 1017.13 1017.13 1017.09 1017.05 1017.01 1016.97 1016.85 1016.81 1016.73 1016.61 1016.53 1016.41 1016.29 1016.17 1016.13 1016.01 1015.89 1015.81 1015.73 1015.65 1015.57 1015.45 1015.33 1015.25 1015.13 1015.01 1014.93 1014.85 1014.73 1014.65 1014.57 1014.53 1014.45 1014.37 1014.17 1013.97 1013.73 1013.49 1013.29 1013.09 1012.89 1012.73 1012.57 1012.45 1012.29 1012.09 1011.85 1011.69 1011.53 1011.41 1011.29 1011.13 1010.97 1010.81 1010.61 1010.41 1010.25 1010.09 1009.97 1009.85
1017.45 1017.33 1017.25 1017.25 1017.25 1017.25 1017.25 1017.21 1017.17 1017.13 1017.13 1017.09 1017.05 1017.01 1016.93 1016.85 1016.77 1016.69 1016.57 1016.45 1016.33 1016.25 1016.17 1016.09 1016.01 1015.85 1015.77 1015.73 1015.61 1015.49 1015.37 1015.29 1015.17 1015.05 1014.97 1014.89 1014.77 1014.69 1014.61 1014.53 1014.45 1014.33 1014.17 1014.01 1013.77 1013.53 1013.29 1013.01 1012.81 1012.57 1012.29 1012.17 1012.01 1011.85 1011.73 1011.53 1011.37 1011.21 1011.05 1010.89 1010.73 1010.57 1010.41 1010.21 1010.09 1009.97 1009.85 1009.73 1009.57
1017.45 1017.33 1017.29 1017.29 1017.29 1017.29 1017.29 1017.25 1017.21 1017.17 1017.13 1017.13 1017.05 1016.97 1016.89 1016.81 1016.73 1016.61 1016.53 1016.45 1016.33 1016.25 1016.17 1016.05 1015.93 1015.85 1015.73 1015.65 1015.49 1015.41 1015.29 1015.17 1015.13 1015.01 1014.89 1014.81 1014.73 1014.61 1014.57 1014.45 1014.33 1014.21 1014.01 1013.81 1013.57 1013.29 1013.05 1012.77 1012.53 1012.21 1011.93 1011.73 1011.65 1011.57 1011.41 1011.21 1011.05 1010.89 1010.73 1010.57 1010.45 1010.25 1010.05 1009.93 1009.85 1009.73 1009.65 1009.53 1009.37
1017.45 1017.41 1017.33 1017.33 1017.33 1017.29 1017.29 1017.29 1017.25 1017.21 1017.13 1017.09 1017.01 1016.93 1016.85 1016.81 1016.73 1016.61 1016.53 1016.45 1016.33 1016.25 1016.13 1016.01 1015.85 1015.77 1015.65 1015.53 1015.45 1015.29 1015.21 1015.13 1015.05 1014.93 1014.85 1014.77 1014.65 1014.57 1014.45 1014.33 1014.17 1014.01 1013.81 1013.57 1013.29 1013.05 1012.77 1012.49 1012.21 1011.93 1011.61 1011.37 1011.21 1011.13 1011.05 1010.97 1010.77 1010.61 1010.45 1010.29 1010.09 1009.97 1009.85 1009.73 1009.57 1009.45 1009.33 1009.21 1009.05
1017.45 1017.45 1017.41 1017.41 1017.41 1017.37 1017.33 1017.29 1017.25 1017.21 1017.13 1017.09 1017.01 1016.93 1016.85 1016.77 1016.69 1016.57 1016.49 1016.45 1016.29 1016.17 1016.01 1015.89 1015.81 1015.69 1015.53 1015.45 1015.37 1015.29 1015.17 1015.09 1015.01 1014.89 1014.81 1014.73 1014.57 1014.45 1014.29 1014.17 1014.01 1013.81 1013.57 1013.29 1013.01 1012.73 1012.45 1012.17 1011.85 1011.57 1011.29 1011.05 1010.85 1010.77 1010.73 1010.61 1010.53 1010.33 1010.17 1009.97 1009.77 1009.61 1009.53 1009.41 1009.29 1009.17 1009.09 1008.97 1008.85
1017.45 1017.45 1017.45 1017.45 1017.45 1017.45 1017.37 1017.33 1017.29 1017.17 1017.13 1017.09 1017.01 1016.93 1016.85 1016.73 1016.65 1016.57 1016.45 1016.33 1016.25 1016.09 1015.93 1015.81 1015.69 1015.57 1015.45 1015.37 1015.29 1015.25 1015.13 1015.05 1014.97 1014.85 1014.73 1014.61 1014.45 1014.29 1014.13 1013.97 1013.73 1013.57 1013.29 1013.01 1012.73 1012.41 1012.13 1011.85 1011.53 1011.25 1011.01 1010.73 1010.61 1010.57 1010.49 1010.37 1010.21 1010.05 1009.85 1009.69 1009.53 1009.37 1009.29 1009.21 1009.13 1009.01 1008.85 1008.73 1008.57
1017.57 1017.57 1017.57 1017.57 1017.53 1017.45 1017.41 1017.33 1017.29 1017.17 1017.13 1017.05 1016.97 1016.89 1016.85 1016.73 1016.61 1016.53 1016.41 1016.25 1016.17 1016.01 1015.85 1015.73 1015.61 1015.57 1015.45 1015.37 1015.29 1015.17 1015.09 1014.97 1014.89 1014.73 1014.61 1014.49 1014.33 1014.17 1013.89 1013.69 1013.45 1013.25 1012.97 1012.69 1012.41 1012.17 1011.85 1011.49 1011.21 1010.93 1010.69 1010.49 1010.45 1010.41 1010.29 1010.13 1009.97 1009.81 1009.61 1009.45 1009.29 1009.17 1009.09 1009.01 1008.89 1008.77 1008.61 1008.45 1008.29
1017.65 1017.65 1017.65 1017.61 1017.57 1017.45 1017.41 1017.33 1017.25 1017.17 1017.09 1017.01 1016.93 1016.85 1016.77 1016.69 1016.57 1016.45 1016.29 1016.17 1016.01 1015.89 1015.77 1015.69 1015.57 1015.53 1015.45 1015.41 1015.29 1015.17 1015.01 1014.89 1014.81 1014.65 1014.49 1014.33 1014.17 1013.93 1013.69 1013.41 1013.17 1012.93 1012.69 1012.41 1012.17 1011.85 1011.57 1011.25 1010.93 1010.65 1010.45 1010.29 1010.29 1010.21 1010.09 1009.93 1009.77 1009.61 1009.45 1009.29 1009.13 1009.01 1008.85 1008.73 1008.57 1008.45 1008.33 1008.17 1008.05
1017.77 1017.73 1017.73 1017.65 1017.57 1017.49 1017.41 1017.29 1017.21 1017.13 1017.09 1017.01 1016.89 1016.81 1016.73 1016.61 1016.53 1016.37 1016.21 1016.05 1015.89 1015.81 1015.73 1015.65 1015.57 1015.53 1015.45 1015.41 1015.29 1015.17 1015.01 1014.85 1014.73 1014.53 1014.33 1014.13 1013.93 1013.69 1013.41 1013.13 1012.93 1012.73 1012.49 1012.21 1011.93 1011.61 1011.29 1010.97 1010.69 1010.45 1010.25 1010.13 1010.09 1010.01 1009.89 1009.77 1009.57 1009.45 1009.25 1009.05 1008.93 1008.73 1008.57 1008.49 1008.33 1008.21 1008.09 1007.97 1007.85
1017.85 1017.81 1017.73 1017.65 1017.57 1017.45 1017.37 1017.29 1017.21 1017.13 1017.05 1016.97 1016.85 1016.77 1016.65 1016.57 1016.45 1016.29 1016.13 1015.97 1015.85 1015.77 1015.73 1015.65 1015.57 1015.53 1015.45 1015.33 1015.21 1015.09 1014.93 1014.77 1014.57 1014.37 1014.17 1013.93 1013.69 1013.41 1013.09 1012.85 1012.69 1012.49 1012.29 1012.01 1011.73 1011.37 1011.01 1010.73 1010.49 1010.25 1010.05 1009.97 1009.93 1009.85 1009.73 1009.61 1009.45 1009.25 1009.05 1008.85 1008.69 1008.49 1008.37 1008.25 1008.17 1008.01 1007.89 1007.77 1007.69
1017.93 1017.85 1017.73 1017.65 1017.57 1017.45 1017.33 1017.25 1017.17 1017.09 1017.01 1016.93 1016.85 1016.73 1016.61 1016.45 1016.33 1016.21 1016.05 1015.93 1015.85 1015.81 1015.73 1015.65 1015.57 1015.49 1015.37 1015.29 1015.13 1015.01 1014.85 1014.65 1014.45 1014.17 1013.89 1013.65 1013.41 1013.13 1012.85 1012.65 1012.45 1012.29 1012.09 1011.77 1011.45 1011.13 1010.81 1010.53 1010.29 1010.09 1009.93 1009.89 1009.85 1009.73 1009.61 1009.45 1009.25 1009.01 1008.85 1008.61 1008.45 1008.33 1008.21 1008.17 1008.01 1007.89 1007.73 1007.61 1007.49
1017.93 1017.85 1017.73 1017.61 1017.53 1017.45 1017.29 1017.21 1017.13 1017.01 1016.97 1016.85 1016.73 1016.65 1016.57 1016.41 1016.29 1016.17 1016.01 1015.89 1015.85 1015.81 1015.73 1015.57 1015.53 1015.45 1015.33 1015.21 1015.01 1014.85 1014.65 1014.45 1014.25 1013.97 1013.69 1013.41 1013.13 1012.85 1012.65 1012.45 1012.25 1012.05 1011.77 1011.49 1011.17 1010.93 1010.65 1010.41 1010.17 1009.97 1009.81 1009.81 1009.73 1009.65 1009.49 1009.25 1009.01 1008.81 1008.61 1008.45 1008.29 1008.17 1008.09 1008.01 1007.85 1007.73 1007.57 1007.41 1007.21
1017.89 1017.81 1017.69 1017.61 1017.53 1017.41 1017.29 1017.17 1017.09 1017.01 1016.89 1016.81 1016.73 1016.57 1016.49 1016.33 1016.21 1016.13 1016.01 1015.93 1015.85 1015.85 1015.73 1015.57 1015.45 1015.37 1015.25 1015.05 1014.85 1014.65 1014.45 1014.21 1014.01 1013.73 1013.45 1013.13 1012.89 1012.65 1012.45 1012.17 1011.97 1011.73 1011.49 1011.25 1011.01 1010.77 1010.53 1010.29 1010.05 1009.81 1009.65 1009.61 1009.57 1009.45 1009.29 1009.01 1008.81 1008.61 1008.49 1008.33 1008.21 1008.09 1007.97 1007.81 1007.69 1007.49 1007.33 1007.13 1006.89
1017.85 1017.73 1017.69 1017.57 1017.45 1017.37 1017.25 1017.13 1017.05 1016.97 1016.85 1016.77 1016.69 1016.57 1016.45 1016.29 1016.17 1016.05 1016.01 1015.93 1015.85 1015.81 1015.69 1015.57 1015.41 1015.25 1015.09 1014.89 1014.69 1014.45 1014.17 1013.93 1013.73 1013.53 1013.25 1012.97 1012.65 1012.41 1012.17 1011.97 1011.73 1011.49 1011.29 1011.09 1010.85 1010.61 1010.41 1010.17 1009.97 1009.73 1009.53 1009.45 1009.37 1009.25 1009.09 1008.89 1008.73 1008.57 1008.45 1008.29 1008.17 1007.97 1007.77 1007.57 1007.45 1007.29 1007.09 1006.85 1006.65
1017.85 1017.73 1017.61 1017.53 1017.41 1017.29 1017.21 1017.09 1017.01 1016.89 1016.81 1016.73 1016.61 1016.49 1016.37 1016.17 1016.09 1016.01 1015.97 1015.89 1015.85 1015.73 1015.57 1015.45 1015.29 1015.13 1014.93 1014.73 1014.45 1014.21 1013.97 1013.69 1013.45 1013.25 1013.01 1012.73 1012.45 1012.21 1012.01 1011.81 1011.61 1011.45 1011.25 1011.01 1010.73 1010.45 1010.25 1010.01 1009.85 1009.65 1009.45 1009.29 1009.25 1009.13 1009.01 1008.85 1008.73 1008.53 1008.37 1008.17 1008.01 1007.81 1007.61 1007.41 1007.21 1007.05 1006.85 1006.69 1006.49
Wind_Speed
4 4 3 3 3 2 2 1 1 1 1 1 2 2 2 2 2 2 3 3 3 3 4 4 4 4 4 5 5 6 6 6 6 6 7 7 7 7 8 8 7 7 7 8 7 7 6 6 6 5 4 5 5 5 5 5 5 6 6 7 7 7 7 9 9 9 10 10 8
3 3 4 3 3 2 2 1 1 1 2 2 2 2 2 2 2 3 3 3 3 3 4 4 4 4 5 6 6 6 6 6 6 6 7 7 8 8 7 7 7 7 8 8 7 7 6 6 6 5 5 5 5 5 5 6 6 6 7 8 7 6 6 8 8 9 9 10 8
2 3 3 3 2 2 2 2 2 2 3 3 2 2 2 2 2 3 3 4 4 4 4 4 4 4 5 6 6 5 5 6 6 6 7 7 7 8 8 7 8 8 8 8 7 7 7 6 6 6 5 5 5 6 6 6 6 7 7 8 6 6 6 7 7 7 7 7 7
3 2 2 1 2 2 2 3 3 3 3 3 2 2 2 2 2 3 3 4 4 4 4 4 5 5 5 5 5 5 6 6 7 7 7 7 7 8 8 8 8 8 8 8 8 8 7 7 6 5 5 6 7 7 6 6 6 6 6 6 6 6 6 7 6 6 6 6 6
2 1 0 0 1 2 2 2 2 2 1 1 1 1 1 2 2 3 3 4 4 4 4 5 5 5 5 5 6 6 6 7 7 7 7 7 8 8 8 8 8 8 8 8 8 8 8 7 6 5 5 6 6 6 6 7 7 6 6 5 5 6 6 6 6 5 5 6 5
1 1 1 1 1 1 1 1 1 1 1 1 1 2 2 2 3 3 4 4 4 5 5 6 6 6 6 6 6 6 6 7 7 7 7 8 8 8 8 8 8 8 8 7 8 8 8 7 6 5 5 6 6 6 7 7 7 7 6 6 6 5 5 6 5 5 6 6 7
2 2 2 2 2 2 2 2 1 1 1 1 2 3 4 4 4 5 5 5 5 5 5 6 6 5 5 5 6 6 6 7 7 7 8 8 8 8 8 8 8 8 8 8 8 8 7 6 6 6 6 6 6 6 7 7 7 7 7 7 6 5 5 6 5 5 6 8 9
3 2 2 2 3 2 2 2 2 2 2 2 3 4 5 5 6 6 6 6 5 5 5 4 5 5 5 5 6 7 7 8 8 8 7 7 8 8 8 8 8 8 8 8 8 8 7 6 5 5 6 5 6 6 7 7 8 8 8 8 7 6 5 6 6 6 7 9 10
2 2 3 3 3 3 3 3 2 2 2 3 4 4 5 6 6 6 6 6 5 5 5 4 5 5 6 7 7 8 8 8 8 8 8 7 8 8 8 8 8 8 8 7 8 8 8 6 6 5 6 5 6 6 7 8 9 10 9 8 7 7 7 7 8 8 9 9 10
2 3 3 3 3 3 3 3 2 2 3 3 4 5 6 6 7 6 5 5 5 5 5 4 5 6 7 7 8 8 8 8 8 8 8 8 9 9 9 8 8 9 9 8 7 8 8 6 6 6 6 6 7 8 9 9 10 10 10 8 8 9 10 9 9 9 9 9 10
3 3 3 3 4 4 3 3 2 2 3 4 5 5 6 6 6 6 5 5 5 5 5 5 6 7 7 8 8 8 8 8 8 8 8 9 9 9 9 9 9 9 9 9 7 7 7 6 7 8 8 7 7 8 9 9 10 11 11 10 10 11 11 11 10 10 9 10 11
4 4 4 4 4 4 3 3 2 3 4 5 5 6 6 6 6 5 5 5 5 5 6 6 6 7 8 7 8 8 8 8 8 8 9 9 9 10 10 10 10 10 10 10 8 7 6 7 7 8 9 9 8 8 8 10 10 11 12 12 11 11 12 12 11 10 10 10 11
5 5 5 5 5 5 4 3 3 3 4 5 5 5 5 5 5 5 5 5 6 6 6 6 7 7 7 8 8 8 8 8 8 9 9 9 10 10 10 10 10 10 10 9 8 7 7 7 8 9 10 9 8 8 8 10 11 11 12 12 12 12 12 13 12 12 11 12 12
6 6 6 6 6 5 5 4 4 4 4 5 5 5 5 5 5 5 5 5 6 6 6 7 7 7 7 8 8 8 8 8 9 9 10 10 10 10 10 10 10 10 9 8 8 8 8 8 9 9 10 10 9 9 10 10 11 11 11 12 12 13 13 13 13 13 13 13 13
6 7 7 6 6 6 5 5 4 4 4 5 4 4 4 4 4 5 5 6 6 6 6 7 7 7 7 8 8 8 9 9 9 10 10 10 10 10 10 10 10 10 9 9 8 8 9 9 9 9 9 10 10 10 11 11 11 11 12 12 13 13 13 13 13 13 13 13 13
6 7 7 6 6 6 6 5 4 4 4 4 3 3 4 4 4 5 6 6 6 6 6 7 7 7 7 7 8 8 9 9 9 10 10 10 10 10 10 10 10 10 10 10 9 9 9 9 9 9 9 10 10 10 10 11 11 11 12 12 13 13 13 13 13 13 13 14 14
7 7 7 6 7 7 6 6 5 4 3 3 3 4 4 4 4 5 6 7 7 7 7 8 7 7 7 7 7 7 8 9 9 9 10 10 10 11 11 11 10 10 10 10 10 10 10 9 9 9 9 10 10 10 10 10 10 11 11 12 12 12 13 13 14 14 14 14 14
7 7 7 7 7 7 7 6 5 4 4 4 4 4 4 5 5 6 6 7 7 8 8 9 8 8 8 8 8 7 7 9 9 10 10 10 11 11 11 11 11 10 10 10 10 10 10 10 10 10 9 9 10 10 10 11 11 11 11 12 12 13 13 14 14 14 14 14 14
7 7 7 7 7 7 6 6 5 4 4 4 4 5 5 6 6 7 7 7 7 8 9 9 8 8 9 9 9 9 8 9 10 10 11 11 11 11 11 11 11 10 10 10 10 10 11 11 10 10 10 10 10 11 11 12 12 12 12 13 13 14 14 14 15 14 14 15 15
8 8 8 7 7 6 6 5 4 4 4 4 5 6 6 7 7 8 8 8 8 8 8 9 9 9 9 10 10 10 9 8 9 10 11 11 11 11 11 11 11 10 10 10 10 10 11 11 11 11 11 12 12 12 13 13 13 14 14 14 14 14 15 15 15 15 15 16 16
8 8 8 7 6 6 5 4 4 4 4 5 6 6 7 7 7 8 8 8 8 8 8 9 9 10 10 10 10 10 9 8 9 10 10 10 11 11 11 10 10 9 9 9 10 10 11 11 11 11 12 12 13 13 13 13 14 14 14 14 14 14 15 15 16 16 16 16 17
8 7 7 7 6 5 4 3 4 4 5 6 6 6 7 7 8 8 8 8 8 8 9 9 9 10 10 10 10 10 9 8 9 9 10 10 10 10 10 9 9 9 9 9 9 10 11 11 12 12 12 12 13 13 13 14 14 14 14 14 15 15 16 16 16 16 17 17 17
8 7 7 6 5 5 4 4 4 5 6 6 6 7 7 8 8 8 8 8 8 9 9 9 9 9 10 10 10 10 10 9 9 9 10 9 9 9 9 8 8 8 9 8 9 10 10 11 12 12 12 12 13 13 14 15 15 15 15 15 16 16 17 17 17 17 17 17 17
8 7 6 5 5 5 5 5 5 6 6 6 7 7 7 8 8 9 9 9 10 10 10 9 9 9 9 10 10 10 10 10 10 10 10 10 9 9 8 7 7 8 8 8 10 11 12 11 11 11 11 11 11 12 13 14 14 15 15 16 16 17 17 17 17 17 17 17 17
8 8 7 6 6 5 5 5 6 6 6 6 7 7 8 8 9 9 9 10 10 10 10 10 10 9 9 9 9 10 10 10 10 10 10 9 9 8 8 7 8 8 8 10 15 18 20 18 15 12 10 10 11 12 13 14 15 15 16 16 16 16 16 17 17 17 17 17 17
8 8 7 6 6 6 6 6 6 6 7 7 7 8 8 8 9 9 10 10 10 11 10 10 10 10 9 9 9 9 9 9 9 9 9 9 9 9 8 8 8 8 9 13 18 21 23 23 22 19 15 11 11 12 12 13 14 15 15 16 16 15 15 15 15 16 16 16 16
8 7 7 6 6 6 6 6 6 6 7 7 8 8 9 9 9 9 10 11 11 10 10 9 9 9 9 8 9 10 10 9 9 9 9 9 9 10 10 10 9 9 11 16 20 23 24 25 25 24 21 15 12 12 11 11 12 13 14 14 14 14 14 15 15 15 15 14 15
7 7 6 6 6 6 6 6 7 7 8 8 8 9 9 9 10 10 10 10 10 10 9 8 8 7 7 6 8 9 10 10 9 8 9 9 10 11 11 11 10 11 14 19 23 24 25 26 26 26 25 21 15 12 11 12 11 11 11 11 11 12 13 13 13 12 13 13 13
7 7 7 6 6 6 7 7 7 8 8 8 9 9 10 10 10 10 10 11 11 9 8 7 7 6 6 7 8 9 9 9 9 8 9 10 11 12 12 12 12 13 17 22 24 25 26 26 26 27 27 25 17 12 9 9 9 9 9 8 9 10 10 10 10 10 10 11 11
7 7 6 7 7 7 7 7 8 8 8 8 9 9 10 10 10 10 10 11 10 9 8 8 7 7 8 9 8 8 8 8 9 9 10 12 13 13 13 14 13 15 18 23 25 26 26 26 26 27 27 27 21 15 10 9 9 8 8 8 9 10 10 10 10 10 11 11 12
7 7 7 7 7 7 8 8 8 9 9 9 9 10 10 10 10 10 9 9 9 9 9 8 9 9 9 9 8 8 8 9 10 10 11 12 14 14 14 14 14 16 18 23 25 26 26 26 26 27 27 27 22 16 11 10 10 9 9 9 10 10 10 9 10 11 12 13 13
7 7 7 8 8 8 8 9 9 9 9 9 10 10 10 10 9 9 8 8 9 9 9 8 9 9 9 9 8 8 10 11 11 12 12 13 14 14 14 15 15 16 18 23 25 25 26 26 27 27 27 27 22 16 12 11 11 10 10 11 11 11 11 10 10 12 13 14 14
7 7 8 8 9 9 9 9 9 9 9 9 9 10 10 10 9 9 9 9 8 8 8 8 8 8 8 9 9 10 11 12 12 13 14 15 15 15 15 15 14 15 18 23 24 26 26 27 27 27 27 27 21 15 12 11 10 9 9 10 11 11 12 12 12 12 13 13 13
8 8 9 9 9 9 9 9 9 9 9 9 9 10 10 9 9 9 9 9 8 7 7 7 7 7 7 8 10 11 13 13 13 14 14 15 15 16 16 15 12 14 19 23 25 26 27 27 27 27 27 26 18 13 11 11 10 10 10 10 11 11 11 11 12 12 13 13 12
9 9 9 9 9 9 9 9 9 9 9 10 10 10 9 9 9 9 9 9 9 7 6 6 7 7 8 9 11 12 14 15 14 15 15 15 16 16 16 16 14 16 20 24 25 26 27 27 27 27 26 22 15 11 9 10 10 10 11 12 12 12 12 11 11 11 12 12 11
9 9 9 9 9 9 9 9 9 9 9 10 10 10 9 9 9 8 9 10 9 8 7 7 8 8 9 11 12 13 14 15 15 15 16 16 17 17 17 16 15 17 20 23 25 26 26 26 27 26 24 19 12 9 8 9 9 10 11 12 13 13 12 11 11 11 11 10 11
9 9 9 10 10 10 9 9 9 9 10 10 9 9 9 9 9 8 8 8 7 7 7 8 9 10 12 13 13 13 13 14 15 16 17 17 17 17 17 15 15 16 18 22 24 25 25 26 26 25 22 15 10 9 8 8 8 9 10 12 12 12 11 10 10 10 10 10 11
9 9 9 10 10 10 9 9 9 9 10 10 8 8 8 8 8 8 8 8 6 7 8 9 11 12 12 13 13 14 14 14 15 17 17 18 17 17 16 15 14 15 16 20 22 24 25 25 25 24 21 14 11 9 8 8 8 9 10 11 11 10 10 9 9 9 9 11 14
9 9 9 10 10 10 9 9 9 9 9 9 8 9 9 8 7 7 7 7 6 7 9 10 12 12 13 14 14 14 14 15 16 17 17 17 17 17 16 15 14 14 15 19 22 23 24 24 24 24 22 16 11 9 8 7 8 9 9 9 9 9 9 8 8 8 9 11 16
9 9 9 10 9 9 9 9 9 9 8 8 9 9 9 8 7 7 7 7 7 8 9 11 12 13 13 15 14 14 15 15 15 16 17 17 17 18 18 16 14 14 15 18 21 23 23 23 24 24 22 15 11 8 8 7 8 8 8 8 7 7 8 8 7 7 8 10 14
9 9 10 10 9 9 9 9 9 8 8 7 8 8 8 8 7 7 7 7 8 9 10 10 12 13 14 15 14 14 15 16 15 15 16 16 16 16 16 15 14 13 14 16 20 22 22 23 23 24 22 16 11 8 7 7 7 7 8 8 7 7 7 8 8 8 9 10 10
Wind_Direction
198 173 153 143 138 139 145 155 167 174 181 185 205 216 223 229 240 247 251 253 257 260 262 264 265 269 272 273 274 276 278 281 283 284 285 285 284 283 283 283 283 283 283 283 283 283 282 280 278 277 275 272 271 269 267 265 264 263 262 261 262 263 263 263 264 264 263 263 262
170 144 133 134 137 141 148 161 186 200 207 206 208 212 217 222 232 241 247 251 255 259 263 267 268 269 270 269 270 272 275 279 281 283 283 282 282 281 282 283 283 283 284 284 284 283 282 279 278 277 275 273 272 270 269 266 264 265 264 262 262 263 263 263 262 262 262 262 261
115 115 119 129 141 154 166 182 198 208 212 213 211 209 210 216 227 237 245 250 253 257 261 264 264 264 264 266 268 270 273 277 279 281 281 281 281 282 282 283 283 284 283 283 282 280 278 277 276 275 274 273 271 270 269 267 265 265 265 263 263 263 263 264 263 263 263 263 261
71 85 102 133 165 182 191 197 202 206 207 206 202 203 206 216 230 239 246 250 253 255 256 257 261 263 265 268 272 274 276 278 279 281 281 281 282 282 282 282 282 281 280 279 278 276 275 274 274 274 273 272 270 269 269 269 267 265 264 264 264 263 263 264 264 264 265 264 262
53 57 80 195 218 218 215 208 210 213 213 202 207 229 239 244 247 249 251 254 255 256 258 261 267 272 275 276 278 279 280 281 283 283 282 282 281 280 279 278 277 277 276 276 275 275 276 275 275 274 272 272 270 269 268 268 268 267 266 266 264 263 263 264 264 264 265 265 264
32 9 322 285 277 277 281 291 292 296 303 319 296 284 275 270 267 265 264 266 268 271 275 278 280 281 281 280 282 283 284 283 283 281 280 279 278 277 277 276 275 276 277 277 277 277 277 278 278 276 274 273 272 270 269 269 269 269 268 267 265 264 264 264 264 264 264 264 264
3 353 338 326 322 317 316 315 312 309 307 303 288 279 275 273 274 275 276 278 282 284 284 283 281 281 282 284 286 286 285 284 281 279 277 278 278 278 278 279 279 279 280 280 280 280 280 279 279 278 277 276 276 274 272 271 271 271 270 270 268 267 266 265 265 264 263 263 263
349 342 333 324 318 311 303 296 292 290 286 279 273 273 273 275 278 280 283 285 284 282 281 280 279 281 284 288 288 287 286 284 283 281 280 280 282 283 283 283 284 283 283 283 283 283 282 281 279 278 278 278 277 276 275 274 274 273 273 272 272 270 268 268 267 265 263 263 263
326 320 313 307 298 290 283 278 273 270 268 268 269 271 275 277 280 282 283 282 280 279 280 282 286 289 290 291 289 288 287 287 287 287 287 287 288 288 288 287 288 287 287 286 285 285 284 283 280 278 277 277 276 276 276 276 276 276 275 275 275 273 271 269 269 268 268 267 268
298 295 294 290 283 277 273 271 267 265 266 270 272 274 277 279 279 279 279 278 281 283 286 289 293 294 293 292 290 289 289 290 290 291 292 291 291 291 291 291 290 290 289 288 287 285 284 283 280 278 276 275 275 276 276 276 276 276 275 274 274 273 273 272 273 274 275 275 275
294 289 285 281 277 275 274 274 273 272 271 272 274 275 276 277 278 278 279 282 287 290 292 294 295 294 293 292 291 291 291 292 292 292 293 292 292 291 291 291 291 290 289 289 287 285 283 281 279 277 276 274 274 275 276 275 275 275 276 276 276 278 279 280 281 281 281 281 279
303 297 292 286 281 278 273 267 266 265 265 266 268 271 273 274 276 279 284 291 294 294 294 295 294 294 293 292 291 291 292 292 292 293 293 293 292 292 291 291 290 289 288 287 286 284 281 279 278 277 277 275 275 275 277 277 278 280 282 284 285 286 286 286 285 285 283 282 281
302 299 295 291 287 282 275 264 259 257 258 259 262 266 270 273 278 284 291 296 296 296 295 294 293 292 292 291 291 292 293 293 294 294 294 293 292 292 291 290 289 288 287 285 284 281 280 278 277 278 279 279 278 279 281 284 286 287 288 289 289 288 287 286 285 284 282 281 279
299 296 293 290 287 284 278 271 265 260 257 257 260 264 270 277 286 292 297 298 296 295 294 293 292 290 290 290 291 293 294 295 296 295 294 292 291 290 289 288 287 286 285 284 282 281 280 280 279 280 281 282 283 285 286 288 289 289 289 289 287 286 285 284 283 282 281 280 279
300 296 293 290 288 285 281 276 271 266 262 261 264 271 279 289 295 299 299 296 294 292 291 291 290 289 289 291 293 295 296 296 295 294 292 291 289 288 288 287 286 286 285 285 284 283 282 282 282 282 283 284 286 287 288 289 289 288 287 285 284 283 282 281 280 279 278 278 277
301 298 296 293 291 287 284 280 276 273 271 271 278 286 294 298 299 299 297 294 292 290 290 289 290 291 293 294 296 297 297 295 293 292 290 289 289 288 287 287 287 287 286 287 286 285 284 283 282 283 283 284 286 288 289 289 288 286 284 282 280 279 277 276 275 274 273 271 270
303 300 298 295 293 290 287 285 284 283 285 289 296 300 301 300 299 296 293 291 291 291 291 291 293 295 297 297 297 296 295 294 291 290 289 288 288 288 288 288 287 288 287 287 287 286 284 283 282 282 283 285 287 289 289 288 286 284 282 279 277 275 273 272 271 270 268 266 264
304 302 299 297 295 292 291 290 292 295 300 304 305 304 302 300 297 294 292 291 291 293 294 296 297 298 298 297 296 294 293 292 290 290 289 289 289 289 289 288 288 287 287 286 286 285 285 285 286 286 288 289 290 290 290 289 286 283 280 277 275 272 270 269 267 266 265 263 262
305 303 301 299 296 295 295 296 300 305 309 310 308 304 301 297 296 294 294 293 294 296 298 300 300 299 297 296 294 293 292 290 290 290 289 289 289 289 288 288 287 287 287 286 286 287 288 291 293 294 295 295 294 292 290 288 285 282 278 275 272 270 268 266 265 264 262 261 260
304 303 301 299 298 298 299 303 308 312 312 310 306 302 299 296 296 296 296 297 299 301 302 301 300 298 296 294 293 293 292 290 290 290 290 290 289 289 288 288 288 288 288 289 291 294 297 299 300 301 299 298 295 292 289 285 282 278 275 273 271 269 267 265 264 262 261 259 258
304 302 301 300 300 302 305 310 313 313 310 306 302 299 297 297 298 299 299 301 303 303 302 300 298 297 295 294 294 293 292 291 290 290 290 290 290 289 290 290 291 293 295 298 301 303 305 305 304 302 299 296 291 287 283 280 277 274 271 269 268 266 265 263 262 260 259 257 256
303 302 301 302 304 308 312 315 314 310 306 303 300 300 300 301 302 302 303 304 304 303 301 298 296 295 294 294 294 293 293 292 292 291 291 292 292 293 294 296 299 302 305 307 307 307 306 303 300 296 292 288 283 278 275 273 271 269 268 265 264 263 262 261 259 258 257 256 256
303 303 303 305 309 312 316 315 312 309 306 303 303 304 304 305 306 306 306 306 305 303 300 298 296 295 295 295 296 296 297 297 297 296 296 296 296 298 300 303 306 308 309 308 306 303 300 296 291 287 282 278 275 272 270 268 268 267 266 264 263 262 261 260 259 259 258 257 256
305 305 306 309 313 316 317 315 313 310 308 307 307 307 308 308 308 308 308 306 304 303 301 300 299 299 298 299 300 301 301 302 302 301 300 300 301 303 306 309 309 308 306 303 300 297 293 289 285 281 277 272 269 267 266 265 264 264 263 263 262 261 261 260 260 259 258 257 256
307 307 309 312 315 317 317 316 313 312 310 310 310 311 311 311 310 309 308 306 304 303 302 302 303 303 303 303 304 304 304 304 303 303 303 303 305 307 309 310 307 305 302 298 295 293 291 289 287 283 277 271 267 265 263 261 261 260 260 260 260 261 262 262 260 259 257 256 254
309 310 311 314 316 318 318 316 315 313 313 313 314 314 314 313 311 309 307 306 305 304 305 306 307 308 308 307 307 307 306 304 303 303 304 305 307 309 309 308 305 302 298 296 294 293 292 291 289 287 283 275 270 267 265 263 261 260 260 260 262 264 265 264 261 259 256 254 252
312 312 314 317 319 320 319 318 318 317 317 317 317 316 314 313 311 309 307 306 306 307 308 309 309 309 309 307 307 305 304 302 302 303 304 306 308 309 309 306 304 300 296 294 294 293 293 292 291 290 287 282 277 273 270 268 266 264 264 264 265 265 264 263 262 262 262 262 260
314 315 318 322 323 323 321 321 321 321 320 320 318 316 314 312 311 309 308 308 310 311 311 311 309 309 307 305 303 302 301 302 303 305 306 308 309 308 307 304 301 297 295 295 294 294 294 294 293 292 290 287 283 279 276 275 274 272 269 267 265 262 261 261 265 271 276 277 273
316 319 323 326 326 325 324 325 324 322 321 320 317 315 313 312 311 310 310 311 312 312 311 309 307 305 303 301 300 300 301 303 305 308 309 310 309 307 304 301 298 296 295 295 295 295 294 294 293 292 291 291 289 286 283 281 279 276 272 269 266 265 266 269 276 281 284 283 281
320 324 327 329 328 328 327 326 324 322 321 318 317 315 313 312 311 311 312 312 311 310 307 305 303 301 300 299 301 304 306 307 309 310 310 309 307 304 301 299 297 294 294 294 294 294 293 293 293 292 292 292 291 289 287 286 282 278 274 271 269 270 272 274 278 280 281 282 282
324 329 332 332 331 329 327 325 323 321 320 317 316 314 313 312 312 312 311 311 308 305 303 302 300 300 300 302 306 309 310 310 311 310 308 306 303 301 299 296 294 291 290 291 291 292 292 292 292 293 293 294 293 293 292 290 286 281 276 273 271 272 273 276 279 281 282 283 282
332 336 336 334 331 328 325 323 321 319 317 316 314 313 312 311 310 310 308 306 304 303 302 301 302 304 307 311 312 313 313 312 310 309 306 303 301 298 296 293 290 288 288 289 290 291 292 293 294 295 295 296 296 297 296 293 288 283 278 276 276 277 280 282 282 282 281 281 280
340 340 337 333 329 325 322 320 318 317 315 314 313 312 312 311 310 308 307 305 303 302 302 303 308 311 314 317 317 315 313 310 308 305 303 301 298 295 292 290 287 286 287 289 291 292 294 296 297 298 298 300 301 301 299 296 291 286 282 281 283 284 284 282 280 279 278 278 277
342 338 334 328 324 320 318 317 316 315 314 314 312 312 311 310 309 308 306 305 304 304 305 309 313 316 318 317 316 314 311 308 305 303 301 298 295 292 290 289 286 287 288 290 292 295 297 299 300 301 302 304 304 303 300 296 292 288 286 286 288 287 285 281 279 278 277 277 278
339 334 328 323 319 317 316 315 315 314 314 313 312 312 310 309 307 306 306 306 308 309 312 316 318 319 318 316 313 310 307 305 302 300 298 295 293 290 288 287 286 287 290 292 294 297 300 302 303 304 305 307 306 303 299 295 291 288 287 289 290 289 287 285 283 282 282 281 283
334 328 323 319 316 315 314 315 315 314 314 313 312 311 310 309 308 307 307 309 313 315 318 320 320 318 316 313 309 306 303 302 300 297 295 293 291 290 288 287 286 288 291 294 297 300 303 305 306 307 308 309 308 305 300 294 290 289 289 291 292 292 292 292 291 289 288 287 287
327 323 319 316 315 314 314 314 314 314 313 312 312 311 311 310 309 310 311 315 318 319 320 319 318 315 312 309 305 302 300 298 296 294 293 291 291 290 289 289 288 289 292 295 299 302 305 307 308 308 309 310 310 305 299 292 289 289 291 292 294 295 296 296 294 291 288 286 286
323 320 317 315 314 313 314 314 314 313 312 312 312 312 312 311 310 311 314 319 321 320 319 317 314 311 308 305 302 299 296 293 292 292 291 291 290 290 290 291 291 291 293 297 302 305 307 308 308 308 309 310 309 304 297 291 289 291 293 296 298 299 298 295 291 287 283 282 284
320 317 315 314 313 313 313 314 313 313 312 313 313 313 312 312 311 313 317 322 321 319 316 313 310 307 304 302 299 296 294 291 290 291 291 291 290 291 292 294 294 295 297 301 304 306 308 309 309 309 310 311 309 305 299 294 294 295 297 300 300 298 295 290 285 282 280 280 285
317 315 314 313 313 313 314 313 313 313 313 313 313 312 311 311 311 315 318 321 320 316 313 309 306 303 301 300 298 295 293 292 290 290 290 291 291 293 295 298 298 299 301 303 305 307 308 310 310 312 313 313 313 310 304 302 301 301 301 301 299 296 292 287 283 282 283 283 287
316 314 314 313 313 313 314 313 313 313 313 313 311 310 309 310 312 316 319 319 317 314 311 307 303 300 298 298 296 294 293 292 291 290 290 292 293 296 300 303 303 303 302 302 305 307 310 312 313 315 316 317 317 314 311 312 308 305 304 301 299 296 294 292 290 289 288 288 288